Regional Weather Roundup
Issued by NWS

Home | Current Version | Previous Version | Text Only | Print | Product List | Glossary Off
Versions: 1 2 3 4 5 6 7 8 9 10 11 12 13 14 15 16 17 18 19 20 21 22 23 24 25 26 27 28 29 30 31 32 33 34 35 36 37 38 39 40 41 42 43 44 45 46 47 48 49 50

000
ASUS43 KFSD 130510
RWRSD

WEATHER ROUNDUP FOR SOUTH DAKOTA
NATIONAL WEATHER SERVICE SIOUX FALLS SD
1200 AM CDT SUN JUL 13 2014

NOTE: "FAIR" INDICATES FEW OR NO CLOUDS BELOW 12,000 FEET WITH NO
SIGNIFICANT WEATHER AND/OR OBSTRUCTIONS TO VISIBILITY.


SDZ001>005-009-010-012>017-130600-
NORTHWEST AND NORTH CENTRAL SOUTH DAKOTA

CITY           SKY/WX    TMP DP  RH WIND       PRES   REMARKS
BUFFALO          N/A     64  51  62 N13       30.12S
FAITH            N/A     66  60  81 NW8       30.13S
MOBRIDGE       CLEAR     63  61  93 CALM      30.05R
$$

SDZ012>016-024>037-041>051-057-063-072>074-130600-
SOUTHWEST AND SOUTH CENTRAL SOUTH DAKOTA

CITY           SKY/WX    TMP DP  RH WIND       PRES   REMARKS
RAPID CTY ARPT CLEAR     67  63  87 NW7       30.20R
PIERRE         CLEAR     70  64  81 SW8       30.06S
CUSTER         CLEAR     61  57  87 NW5       30.35S
PHILIP         CLEAR     68  62  81 W5        30.12S
PINE RIDGE     CLEAR     64  63  96 CALM      30.21S
WINNER         FAIR      69  62  78 SW5       30.10S
$$

SDZ004>011-016>023-039-040-130600-
NORTHEAST SOUTH DAKOTA

CITY           SKY/WX    TMP DP  RH WIND       PRES   REMARKS
ABERDEEN       PTCLDY    68  60  75 NW6       30.01S
WATERTOWN      MOCLDY    66  64  93 W7        30.01F
SISSETON         N/A     71  61  70 NW12      29.95S
$$

SDZ017-020-022-023-036>040-048>070-130600-
SOUTHEAST SOUTH DAKOTA

CITY           SKY/WX    TMP DP  RH WIND       PRES   REMARKS
SIOUX FALLS    CLEAR     69  65  86 CALM      30.02S
HURON          PTCLDY    70  65  84 W6        30.02S
CHAMBERLAIN    CLEAR     66  62  87 CALM      30.07S
MITCHELL       CLEAR     71  65  81 W6        30.04R
YANKTON        CLEAR     70  66  88 SW6       30.04S
$$

ABBREVIATIONS USED IN REMARKS
   TC - TEMPERATURE IN CELSIUS
  WCI - WIND CHILL INDEX
   HX - HEAT INDEX
  VSB - VISIBILITY




USA.gov is the U.S. government's official web portal to all federal, state and local government web resources and services.